Regional Weather Roundup
Issued by NWS

Home | Current Version | Previous Version | Graphics & Text | Print | Product List | Glossary Off
Versions: 1 2 3 4 5 6 7 8 9 10 11 12 13 14 15 16 17 18 19 20 21 22 23 24 25 26 27 28 29 30 31 32 33 34 35 36 37 38 39 40 41 42 43 44 45 46 47 48 49 50

000
ASUS43 KMKX 230200
RWRWI

WISCONSIN REGIONAL WEATHER ROUNDUP
NATIONAL WEATHER SERVICE MILWAUKEE/SULLIVAN WI
900 PM CDT SAT APR 22 2017

NOTE: "FAIR" INDICATES FEW OR NO CLOUDS BELOW 12,000 FEET WITH NO
SIGNIFICANT WEATHER AND/OR OBSTRUCTIONS TO VISIBILITY.

WIZ001-002-006>008-014>016-023>028-230300-
NORTHWEST WISCONSIN

CITY           SKY/WX    TMP DP  RH WIND       PRES   REMARKS
SUPERIOR ARPT  PTCLDY    60  36  40 SW7       30.02S
ASHLAND        PTCLDY    55  33  43 SW7       30.03S
HAYWARD        CLEAR     60  33  36 SW7       30.06S
SIREN          CLEAR     58  32  37 CALM      30.07F
CUMBERLAND     CLEAR     54  34  47 SW6       30.08F
RICE LAKE      CLEAR     59  32  36 SW5       30.10S
CHETEK         CLEAR     57  33  40 SW5       30.09S
LADYSMITH      CLEAR     58  32  38 SW6       30.09F
EAU CLAIRE     NOT AVBL
MENOMONIE      CLEAR     60  33  36 SW5       30.10S
NEW RICHMOND   CLEAR     56  37  47 CALM      30.11S
OSCEOLA        CLEAR     57  35  42 SW6       30.12S
$$

WIZ003>005-009-010-017-018-230300-
NORTH CENTRAL WISCONSIN

CITY           SKY/WX    TMP DP  RH WIND       PRES   REMARKS
MANITOWISH WTR CLEAR     56  31  38 SW6       30.05S
ARBOR VITAE    CLEAR     53  31  43 CALM      30.06S
WOODRUFF       CLEAR     53  31  43 CALM      30.06S
RHINELANDER    CLEAR     53  31  42 SW7       30.07F
EAGLE RIVER    CLEAR     52  29  41 SW5       30.05S
LAND O LAKES   CLEAR     58  27  30 SW3       30.06S
PHILLIPS       CLEAR     56  34  43 SW5       30.06S
TOMAHAWK       CLEAR     54  30  40 CALM      30.08F
MEDFORD        CLEAR     55  35  46 SW6       30.10S
MERRILL        CLEAR     55  33  43 SW6       30.10S
$$

WIZ029-030-035-036-043>047-230300-
CENTRAL WISCONSIN

CITY           SKY/WX    TMP DP  RH WIND       PRES   REMARKS
WAUSAU         CLEAR     54  34  46 SW6       30.09S
MOSINEE        CLEAR     52  32  46 SW5       30.12S
MARSHFIELD     CLEAR     55  32  41 W6        30.11S
STEVENS POINT  CLEAR     50  32  50 CALM      30.13R
WAUPACA        CLEAR     55  29  38 CALM      30.13R
WAUTOMA        CLEAR     50  33  52 CALM      30.13S
WISC RAPIDS    CLEAR     50  33  52 CALM      30.13R
CAMP DOUGLAS   NOT AVBL
$$

WIZ011>013-019>022-031-037>040-048>050-230300-
NORTHEAST WISCONSIN

CITY           SKY/WX    TMP DP  RH WIND       PRES   REMARKS
ANTIGO         CLEAR     50  33  51 SW8       30.10S
SHAWANO        CLEAR     59  30  33 SW5       30.10S
OCONTO         CLEAR     57  31  36 S7        30.08S
STURGEON BAY   CLEAR     50  34  54 S12       30.10S
GREEN BAY      CLEAR     54  37  52 SW7       30.12R
MANITOWOC      NOT AVBL
APPLETON       PTCLDY    52  30  43 VRB6      30.11S
CLINTONVILLE   CLEAR     55  30  38 SW6       30.11S
OSHKOSH        CLEAR     52  34  50 S8        30.13R
$$

WIZ032>034-041-042-053>061-230300-
SOUTHWEST WISCONSIN

CITY           SKY/WX    TMP DP  RH WIND       PRES   REMARKS
LA CROSSE      CLEAR     57  33  40 S5        30.13S
SPARTA         CLEAR     48  32  53 CALM      30.15R
VIROQUA        CLEAR     58  22  25 CALM      30.15S
BOSCOBEL       CLEAR     52  36  54 CALM      30.15S
PRAIRIE DU CHI CLEAR     55  32  41 CALM      30.15R
PLATTEVILLE    CLEAR     58  27  31 CALM      30.16S
$$

WIZ056-057-062-063-064-067-068-230300-
SOUTH CENTRAL WISCONSIN

CITY           SKY/WX    TMP DP  RH WIND       PRES   REMARKS
REEDSBURG      CLEAR     55  26  32 CALM      30.14R
BARABOO/DELLS  CLEAR     51  31  47 CALM      30.14S
LONE ROCK      NOT AVBL
MINERAL POINT  CLEAR     61  19  20 CALM      30.15S
MADISON        CLEAR     51  31  46 CALM      30.15R
MIDDLETON      CLEAR     51  40  64 CALM      30.16R
WATERTOWN      CLEAR     51  34  51 CALM      30.15R
MONROE         CLEAR     55  27  33 CALM      30.15S
JANESVILLE     PTCLDY    55  28  35 CALM      30.15R
$$

WIZ051-052-058>065-066-070>072-230300-
SOUTHEAST WISCONSIN

CITY           SKY/WX    TMP DP  RH WIND       PRES   REMARKS
MILWAUKEE      PTCLDY    50  21  32 CALM      30.16R
WAUKESHA       CLEAR     50  21  32 CALM      30.17R
MILWAUKEE/TIMM CLEAR     52  16  24 CALM      30.17R
RACINE         CLEAR     47  25  42 CALM      30.17R
KENOSHA        CLEAR     44  25  47 CALM      30.16R
FOND DU LAC    CLEAR     54  32  43 SW6       30.14R
SHEBOYGAN      CLEAR     47  31  53 S6        30.15S
WEST BEND      CLEAR     50  28  43 CALM      30.16R
JUNEAU         CLEAR     54  28  36 CALM      30.15S
$$

LSZ147-162-230300-
LAKE SUPERIOR

STATION/POSITION TIME  TEMP    WIND        PRES    WAVE
                       AIR SEA DIR/SP/G            HT/PER
                 (UTC) (F)     (DEG/KT/KT) (MB)    (FT/S)
DEVILS ISLAND    0100   54      20/ 11/ 12 1017.0R
SAXON HARBOR     0030   67     270/  5/  8 1016.6S
$$

LMZ867-665-643>646-230300-
LAKE MICHIGAN

STATION/POSITION TIME  TEMP    WIND        PRES    WAVE
                       AIR SEA DIR/SP/G            HT/PER
                 (UTC) (F)     (DEG/KT/KT) (MB)    (FT/S)
CHAMBERS ISLAND  0040   53     160/  5/ 12 1017.9F
N MID LAKE BUOY  0050   42 37  190/ 12/ 14 1019.9F   1/ 3
NORTHPORT PIER   0040   50     160/  5/ 10 1018.3F
SISTER BAY       0051   51     190/ 12/ 15   N/A
KEWAUNEE LAKESHO 0130   50     200/  8/ 11 1019.5S
SHEBOYGAN LAKESH 0100   52     200/  7/  7 1020.9F
PORT WASHINGTON  0040   49     210/  2/  5 1021.7S
MILWAUKEE LAKESH 0130   49        CALM       N/A
KENOSHA   LAKESH 0100   49        CALM     1021.0
$$

TC  - TEMPERATURE IN CELSIUS
VSB - VISIBILITY IN STATUTE MILES
WCI - WIND CHILL INDEX
HX  - HEAT INDEX





USA.gov is the U.S. government's official web portal to all federal, state and local government web resources and services.